,,PA_Meas_PMT16A,,PR_Meas_QMR101_102,,RH_Meas_QMH101,,SR_Meas_QMS101,,TA_Meas_QMH101,,GenWind,,GenWind,
time,status,PA,status,PR,status,RH,status,SR,status,TA,status,DirAvg,status,SpdAvg,
2011-12-08, 00:00:04,VALID,916.277,VALID,0,VALID,97.351,VALID,0.107441,VALID,19.5063,VALID,38,VALID,0.417578,
2011-12-08, 00:01:04,VALID,916.254,VALID,0,VALID,97.3586,VALID,0,VALID,19.4673,VALID,38,VALID,0.345703,
2011-12-08, 00:02:04,VALID,916.256,VALID,0,VALID,97.351,VALID,0,VALID,19.4673,VALID,38,VALID,0.354688,
2011-12-08, 00:03:04,VALID,916.248,VALID,0,VALID,97.351,VALID,0,VALID,19.4298,VALID,38,VALID,0.355078,
2011-12-08, 00:04:04,VALID,916.239,VALID,0,VALID,97.3739,VALID,0,VALID,19.4493,VALID,38,VALID,0.112891,
2011-12-08, 00:05:04,VALID,916.227,VALID,0,VALID,97.3586,VALID,0,VALID,19.4508,VALID,38,VALID,0.0914062,
2011-12-08, 00:06:04,VALID,916.258,VALID,0,VALID,97.3968,VALID,0,VALID,19.4493,VALID,38,VALID,0,
2011-12-08, 00:07:04,VALID,916.266,VALID,0,VALID,97.4273,VALID,0,VALID,19.4493,VALID,38,VALID,0,
2011-12-08, 00:08:04,VALID,916.248,VALID,0,VALID,97.4349,VALID,0,VALID,19.4688,VALID,38,VALID,0,
2011-12-08, 00:09:04,VALID,916.244,VALID,0,VALID,97.4577,VALID,0,VALID,19.4883,VALID,38,VALID,0,
2011-12-08, 00:10:04,VALID,916.236,VALID,0,VALID,97.4577,VALID,0,VALID,19.5078,VALID,38,VALID,0.795703,
2011-12-08, 00:11:04,VALID,916.211,VALID,0,VALID,97.4577,VALID,0,VALID,19.5288,VALID,38,VALID,0.469141,
2011-12-08, 00:12:04,VALID,916.203,VALID,0,VALID,97.4425,VALID,0,VALID,19.5078,VALID,38,VALID,0.502734,
2011-12-08, 00:13:04,VALID,916.203,VALID,0,VALID,97.4349,VALID,0,VALID,19.4883,VALID,38,VALID,0.430078,
2011-12-08, 00:14:04,VALID,916.201,VALID,0,VALID,97.4273,VALID,0,VALID,19.4883,VALID,38,VALID,0.773047,
2011-12-08, 00:15:04,VALID,916.208,VALID,0,VALID,97.4196,VALID,0,VALID,19.4883,VALID,38,VALID,0.369922,
2011-12-08, 00:16:04,VALID,916.162,VALID,0,VALID,97.3968,VALID,0,VALID,19.4493,VALID,38,VALID,0.380859,
2011-12-08, 00:17:04,VALID,916.152,VALID,0,VALID,97.3586,VALID,0,VALID,19.4493,VALID,38,VALID,0.661719,
2011-12-08, 00:18:04,VALID,916.13,VALID,0,VALID,97.3739,VALID,0,VALID,19.4703,VALID,38,VALID,0.377344,
2011-12-08, 00:19:04,VALID,916.122,VALID,0,VALID,97.3968,VALID,0,VALID,19.4703,VALID,38,VALID,0.388281,
2011-12-08, 00:20:04,VALID,916.152,VALID,0,VALID,97.4196,VALID,0,VALID,19.4688,VALID,38,VALID,0.340625,
2011-12-08, 00:21:04,VALID,916.091,VALID,0,VALID,97.4044,VALID,0,VALID,19.4898,VALID,38,VALID,0.330469,
2011-12-08, 00:22:04,VALID,916.124,VALID,0,VALID,97.4044,VALID,0,VALID,19.4883,VALID,38,VALID,0.355078,
2011-12-08, 00:23:04,VALID,916.158,VALID,0,VALID,97.3663,VALID,0,VALID,19.4688,VALID,38,VALID,0.354297,
2011-12-08, 00:24:04,VALID,916.178,VALID,0,VALID,97.3434,VALID,0,VALID,19.4688,VALID,38,VALID,0.150391,
2011-12-08, 00:25:04,VALID,916.202,VALID,0,VALID,97.3663,VALID,0,VALID,19.5078,VALID,141,VALID,0.563281,
2011-12-08, 00:26:04,VALID,916.224,VALID,0,VALID,97.3663,VALID,0,VALID,19.5078,VALID,141,VALID,0.137109,
2011-12-08, 00:27:04,VALID,916.247,VALID,0,VALID,97.3434,VALID,0,VALID,19.5273,VALID,141,VALID,0.0761719,
2011-12-08, 00:28:04,VALID,916.249,VALID,0,VALID,97.2977,VALID,0,VALID,19.5273,VALID,141,VALID,0.133984,
2011-12-08, 00:29:04,VALID,916.257,VALID,0,VALID,97.2214,VALID,0,VALID,19.4688,VALID,107,VALID,0.970312,
2011-12-08, 00:30:04,VALID,916.246,VALID,0,VALID,97.1909,VALID,0,VALID,19.4703,VALID,57,VALID,1.5625,
2011-12-08, 00:31:04,VALID,916.206,VALID,0,VALID,97.0918,VALID,0,VALID,19.4103,VALID,57,VALID,1.42773,
2011-12-08, 00:32:04,VALID,916.186,VALID,0,VALID,97.0613,VALID,0,VALID,19.3713,VALID,57,VALID,0.753125,
2011-12-08, 00:33:04,VALID,916.193,VALID,0,VALID,97.1376,VALID,0,VALID,19.3908,VALID,57,VALID,0.550391,
2011-12-08, 00:34:04,VALID,916.143,VALID,0,VALID,97.2519,VALID,0,VALID,19.4313,VALID,57,VALID,0.609766,
2011-12-08, 00:35:04,VALID,916.104,VALID,0,VALID,97.229,VALID,0,VALID,19.4508,VALID,57,VALID,0.43125,
2011-12-08, 00:36:04,VALID,916.074,VALID,0,VALID,97.2672,VALID,0,VALID,19.4493,VALID,57,VALID,0.589844,
2011-12-08, 00:37:04,VALID,916.048,VALID,0,VALID,97.2748,VALID,0,VALID,19.4688,VALID,57,VALID,0.426953,
2011-12-08, 00:38:04,VALID,916.03,VALID,0,VALID,97.2367,VALID,0,VALID,19.4703,VALID,57,VALID,0.740625,
2011-12-08, 00:39:04,VALID,916.007,VALID,0,VALID,97.2214,VALID,0,VALID,19.4703,VALID,57,VALID,0.65,
2011-12-08, 00:40:04,VALID,915.972,VALID,0,VALID,97.2138,VALID,0,VALID,19.4703,VALID,57,VALID,0.380469,
2011-12-08, 00:41:04,VALID,915.954,VALID,0,VALID,97.1833,VALID,0,VALID,19.4508,VALID,134,VALID,0.876172,
2011-12-08, 00:42:04,VALID,915.941,VALID,0,VALID,97.1909,VALID,0,VALID,19.4493,VALID,164,VALID,0.853125,
2011-12-08, 00:43:04,VALID,915.95,VALID,0,VALID,97.1604,VALID,0,VALID,19.4508,VALID,165,VALID,0.926562,
2011-12-08, 00:44:04,VALID,915.974,VALID,0,VALID,97.1681,VALID,0,VALID,19.4298,VALID,164,VALID,0.735156,
2011-12-08, 00:45:04,VALID,915.95,VALID,0,VALID,97.1452,VALID,0,VALID,19.3908,VALID,164,VALID,0.601563,
2011-12-08, 00:46:04,VALID,915.946,VALID,0,VALID,97.1681,VALID,0,VALID,19.3713,VALID,164,VALID,0.700781,
2011-12-08, 00:47:04,VALID,915.98,VALID,0,VALID,97.1909,VALID,0,VALID,19.3923,VALID,164,VALID,0.554688,
2011-12-08, 00:48:04,VALID,916.006,VALID,0,VALID,97.1147,VALID,0,VALID,19.3518,VALID,164,VALID,0.487109,
2011-12-08, 00:49:04,VALID,916.022,VALID,0,VALID,97.1299,VALID,0,VALID,19.3128,VALID,164,VALID,0.562109,
2011-12-08, 00:50:04,VALID,916.022,VALID,0,VALID,97.1909,VALID,0.107441,VALID,19.2918,VALID,164,VALID,0.595703,
2011-12-08, 00:51:04,VALID,916.033,VALID,0,VALID,97.2138,VALID,0.107441,VALID,19.2918,VALID,139,VALID,0.443359,
2011-12-08, 00:52:04,VALID,916.004,VALID,0,VALID,97.2824,VALID,0,VALID,19.3128,VALID,124,VALID,0.785156,
2011-12-08, 00:53:04,VALID,915.998,VALID,0,VALID,97.3129,VALID,0,VALID,19.3518,VALID,124,VALID,0.686328,
2011-12-08, 00:54:04,VALID,915.981,VALID,0,VALID,97.3053,VALID,0,VALID,19.3308,VALID,124,VALID,0.636719,
2011-12-08, 00:55:04,VALID,915.96,VALID,0,VALID,97.3663,VALID,0.107441,VALID,19.3698,VALID,124,VALID,0.89375,
2011-12-08, 00:56:04,VALID,915.942,VALID,0,VALID,97.3739,VALID,0,VALID,19.3893,VALID,124,VALID,0.594531,
2011-12-08, 00:57:04,VALID,915.918,VALID,0,VALID,97.3434,VALID,0.107441,VALID,19.4103,VALID,124,VALID,0.632422,
2011-12-08, 00:58:04,VALID,915.904,VALID,0,VALID,97.3815,VALID,0,VALID,19.4283,VALID,124,VALID,0.847656,
2011-12-08, 00:59:04,VALID,915.882,VALID,0,VALID,97.351,VALID,0,VALID,19.4298,VALID,125,VALID,0.588672,
2011-12-08, 01:00:04,VALID,915.899,VALID,0,VALID,97.3205,VALID,0,VALID,19.4088,VALID,125,VALID,0.657422,
2011-12-08, 01:01:04,VALID,915.889,VALID,0,VALID,97.3205,VALID,0,VALID,19.4298,VALID,124,VALID,0.56875,
2011-12-08, 01:02:04,VALID,915.902,VALID,0,VALID,97.3129,VALID,0.107441,VALID,19.4103,VALID,124,VALID,0.642969,
2011-12-08, 01:03:04,VALID,915.881,VALID,0,VALID,97.3434,VALID,0,VALID,19.3893,VALID,124,VALID,0.584766,
2011-12-08, 01:04:04,VALID,915.855,VALID,0,VALID,97.351,VALID,0,VALID,19.4103,VALID,125,VALID,0.95,
2011-12-08, 01:05:04,VALID,915.852,VALID,0,VALID,97.3434,VALID,0,VALID,19.4298,VALID,125,VALID,0.883984,
2011-12-08, 01:06:04,VALID,915.823,VALID,0,VALID,97.351,VALID,0,VALID,19.4298,VALID,125,VALID,0.590234,
2011-12-08, 01:07:04,VALID,915.818,VALID,0,VALID,97.3663,VALID,0,VALID,19.4298,VALID,125,VALID,0.153125,
2011-12-08, 01:08:04,VALID,915.78,VALID,0,VALID,97.3663,VALID,0,VALID,19.4088,VALID,125,VALID,0.195313,
2011-12-08, 01:09:04,VALID,915.746,VALID,0,VALID,97.3586,VALID,0,VALID,19.4283,VALID,148,VALID,0.679688,
2011-12-08, 01:10:04,VALID,915.719,VALID,0,VALID,97.3434,VALID,0.107441,VALID,19.4493,VALID,160,VALID,0.710547,
2011-12-08, 01:11:04,VALID,915.703,VALID,0,VALID,97.351,VALID,0.107441,VALID,19.4283,VALID,122,VALID,0.526563,
2011-12-08, 01:12:04,VALID,915.703,VALID,0,VALID,97.3586,VALID,0,VALID,19.4478,VALID,125,VALID,0.311328,
2011-12-08, 01:13:04,VALID,915.699,VALID,0,VALID,97.3434,VALID,0.107441,VALID,19.4673,VALID,147,VALID,0.401563,
2011-12-08, 01:14:04,VALID,915.662,VALID,0,VALID,97.3434,VALID,0,VALID,19.4688,VALID,147,VALID,0.538672,
2011-12-08, 01:15:04,VALID,915.668,VALID,0,VALID,97.3663,VALID,0,VALID,19.4883,VALID,147,VALID,0.580078,
2011-12-08, 01:16:04,VALID,915.667,VALID,0,VALID,97.3586,VALID,0,VALID,19.4868,VALID,147,VALID,0.719922,
2011-12-08, 01:17:04,VALID,915.708,VALID,0,VALID,97.3358,VALID,0,VALID,19.4868,VALID,147,VALID,0.596094,
2011-12-08, 01:18:04,VALID,915.699,VALID,0,VALID,97.3129,VALID,0,VALID,19.4508,VALID,147,VALID,0.660156,
2011-12-08, 01:19:04,VALID,915.672,VALID,0,VALID,97.3129,VALID,0,VALID,19.4493,VALID,147,VALID,0.308594,
2011-12-08, 01:20:04,VALID,915.704,VALID,0,VALID,97.3281,VALID,0,VALID,19.4508,VALID,147,VALID,0.450781,
2011-12-08, 01:21:04,VALID,915.745,VALID,0,VALID,97.2977,VALID,0,VALID,19.4313,VALID,132,VALID,0.425781,
2011-12-08, 01:22:04,VALID,915.737,VALID,0,VALID,97.3129,VALID,0,VALID,19.4298,VALID,132,VALID,0.494531,
2011-12-08, 01:23:04,VALID,915.717,VALID,0,VALID,97.351,VALID,0,VALID,19.4508,VALID,132,VALID,0.725781,
2011-12-08, 01:24:04,VALID,915.701,VALID,0,VALID,97.3358,VALID,0,VALID,19.4298,VALID,132,VALID,0.43125,
2011-12-08, 01:25:04,VALID,915.686,VALID,0,VALID,97.3968,VALID,0,VALID,19.5093,VALID,149,VALID,0.938281,
2011-12-08, 01:26:04,VALID,915.733,VALID,0,VALID,97.4044,VALID,0,VALID,19.5078,VALID,165,VALID,1.05313,
2011-12-08, 01:27:04,VALID,915.684,VALID,0,VALID,97.3891,VALID,0,VALID,19.5483,VALID,147,VALID,0.665625,
2011-12-08, 01:28:04,VALID,915.68,VALID,0,VALID,97.3815,VALID,0,VALID,19.5678,VALID,148,VALID,0.810547,
2011-12-08, 01:29:04,VALID,915.664,VALID,0,VALID,97.3739,VALID,0,VALID,19.5468,VALID,173,VALID,0.754687,
2011-12-08, 01:30:04,VALID,915.692,VALID,0,VALID,97.3586,VALID,0,VALID,19.5678,VALID,162,VALID,0.679688,
2011-12-08, 01:31:04,VALID,915.702,VALID,0,VALID,97.3358,VALID,0,VALID,19.5483,VALID,143,VALID,0.50625,
2011-12-08, 01:32:04,VALID,915.678,VALID,0,VALID,97.351,VALID,0,VALID,19.5873,VALID,145,VALID,0.787109,
2011-12-08, 01:33:04,VALID,915.73,VALID,0,VALID,97.3434,VALID,0,VALID,19.5858,VALID,169,VALID,0.753906,
2011-12-08, 01:34:04,VALID,915.69,VALID,0,VALID,97.3434,VALID,0,VALID,19.6248,VALID,161,VALID,0.6625,
2011-12-08, 01:35:04,VALID,915.767,VALID,0,VALID,97.3281,VALID,0,VALID,19.6248,VALID,161,VALID,0.358984,
2011-12-08, 01:36:04,VALID,915.779,VALID,0,VALID,97.3129,VALID,0,VALID,19.6458,VALID,161,VALID,0.521094,
2011-12-08, 01:37:04,VALID,915.769,VALID,0,VALID,97.3205,VALID,0,VALID,19.6443,VALID,161,VALID,0.308203,
2011-12-08, 01:38:04,VALID,915.779,VALID,0,VALID,97.2748,VALID,0,VALID,19.6248,VALID,161,VALID,0.316406,
2011-12-08, 01:39:04,VALID,915.837,VALID,0,VALID,97.229,VALID,0,VALID,19.6248,VALID,161,VALID,0.307031,
2011-12-08, 01:40:04,VALID,915.793,VALID,0,VALID,97.2443,VALID,0,VALID,19.6458,VALID,161,VALID,0.744922,
2011-12-08, 01:41:04,VALID,915.757,VALID,0,VALID,97.2595,VALID,0,VALID,19.6443,VALID,159,VALID,0.648047,
2011-12-08, 01:42:04,VALID,915.779,VALID,0,VALID,97.2214,VALID,0,VALID,19.6248,VALID,162,VALID,0.329297,
2011-12-08, 01:43:04,VALID,915.765,VALID,0,VALID,97.1604,VALID,0,VALID,19.6248,VALID,162,VALID,0.493359,
2011-12-08, 01:44:04,VALID,915.729,VALID,0,VALID,97.2214,VALID,0,VALID,19.6248,VALID,116,VALID,0.550781,
2011-12-08, 01:45:04,VALID,915.718,VALID,0,VALID,97.1757,VALID,0,VALID,19.6443,VALID,116,VALID,0.589063,
2011-12-08, 01:46:04,VALID,915.749,VALID,0,VALID,97.1833,VALID,0,VALID,19.6443,VALID,116,VALID,0.560156,
2011-12-08, 01:47:04,VALID,915.726,VALID,0,VALID,97.1376,VALID,0,VALID,19.6443,VALID,116,VALID,0.660547,
2011-12-08, 01:48:04,VALID,915.729,VALID,0,VALID,97.1452,VALID,0,VALID,19.6443,VALID,116,VALID,0.812891,
2011-12-08, 01:49:04,VALID,915.711,VALID,0,VALID,97.1147,VALID,0,VALID,19.6053,VALID,116,VALID,0.775,
2011-12-08, 01:50:04,VALID,915.717,VALID,0,VALID,97.0766,VALID,0,VALID,19.5858,VALID,116,VALID,0.614844,
2011-12-08, 01:51:04,VALID,915.752,VALID,0,VALID,97.0994,VALID,0,VALID,19.5858,VALID,116,VALID,0.690234,
2011-12-08, 01:52:04,VALID,915.73,VALID,0,VALID,97.0994,VALID,0,VALID,19.5468,VALID,116,VALID,0.599219,
2011-12-08, 01:53:04,VALID,915.694,VALID,0,VALID,97.1299,VALID,0,VALID,19.5468,VALID,116,VALID,0.599609,
2011-12-08, 01:54:04,VALID,915.69,VALID,0,VALID,97.1147,VALID,0,VALID,19.5468,VALID,116,VALID,0.658984,
2011-12-08, 01:55:04,VALID,915.666,VALID,0,VALID,97.1299,VALID,0,VALID,19.5483,VALID,116,VALID,0.595703,
2011-12-08, 01:56:04,VALID,915.634,VALID,0,VALID,97.1833,VALID,0,VALID,19.5663,VALID,116,VALID,0.621484,
2011-12-08, 01:57:04,VALID,915.647,VALID,0,VALID,97.1604,VALID,0,VALID,19.5663,VALID,116,VALID,0.384375,
2011-12-08, 01:58:04,VALID,915.615,VALID,0,VALID,97.1528,VALID,0,VALID,19.5663,VALID,116,VALID,0.232031,
2011-12-08, 01:59:04,VALID,915.592,VALID,0,VALID,97.1986,VALID,0,VALID,19.5663,VALID,116,VALID,0.415234,
2011-12-08, 02:00:04,VALID,915.627,VALID,0,VALID,97.2367,VALID,0,VALID,19.6053,VALID,116,VALID,0.605078,
2011-12-08, 02:01:04,VALID,915.621,VALID,0,VALID,97.229,VALID,0,VALID,19.6053,VALID,116,VALID,1.08633,
2011-12-08, 02:02:04,VALID,915.647,VALID,0,VALID,97.2062,VALID,0,VALID,19.6248,VALID,116,VALID,0.747266,
2011-12-08, 02:03:04,VALID,915.632,VALID,0,VALID,97.2062,VALID,0,VALID,19.6458,VALID,116,VALID,0.396484,
2011-12-08, 02:04:04,VALID,915.612,VALID,0,VALID,97.1833,VALID,0,VALID,19.6443,VALID,116,VALID,0.0726563,
2011-12-08, 02:05:04,VALID,915.576,VALID,0,VALID,97.2138,VALID,0,VALID,19.6833,VALID,116,VALID,0.0113281,
2011-12-08, 02:06:04,VALID,915.578,VALID,0,VALID,97.1604,VALID,0,VALID,19.6638,VALID,116,VALID,0,
2011-12-08, 02:07:04,VALID,915.535,VALID,0,VALID,97.1833,VALID,0,VALID,19.7043,VALID,116,VALID,0.105859,
2011-12-08, 02:08:04,VALID,915.549,VALID,0,VALID,97.1452,VALID,0,VALID,19.6833,VALID,116,VALID,0,
2011-12-08, 02:09:04,VALID,915.473,VALID,0,VALID,97.1681,VALID,0,VALID,19.7028,VALID,116,VALID,0,
2011-12-08, 02:10:04,VALID,915.49,VALID,0,VALID,97.0994,VALID,0,VALID,19.7028,VALID,116,VALID,0.246484,
2011-12-08, 02:11:04,VALID,915.534,VALID,0,VALID,97.1147,VALID,0,VALID,19.6833,VALID,116,VALID,0.191406,
2011-12-08, 02:12:04,VALID,915.498,VALID,0,VALID,97.0537,VALID,0,VALID,19.6848,VALID,116,VALID,0.00664063,
2011-12-08, 02:13:04,VALID,915.519,VALID,0,VALID,96.9927,VALID,0,VALID,19.6653,VALID,116,VALID,0.423828,
2011-12-08, 02:14:04,VALID,915.522,VALID,0,VALID,96.9851,VALID,0,VALID,19.6053,VALID,116,VALID,0.26875,
2011-12-08, 02:15:04,VALID,915.539,VALID,0,VALID,97.0156,VALID,0,VALID,19.5858,VALID,116,VALID,0,
2011-12-08, 02:16:04,VALID,915.546,VALID,0,VALID,97.0232,VALID,0,VALID,19.5858,VALID,116,VALID,0.364844,
2011-12-08, 02:17:04,VALID,915.529,VALID,0,VALID,97.0385,VALID,0,VALID,19.5873,VALID,116,VALID,0.440234,
2011-12-08, 02:18:04,VALID,915.528,VALID,0,VALID,97.0537,VALID,0,VALID,19.5468,VALID,116,VALID,0.382031,
2011-12-08, 02:19:04,VALID,915.491,VALID,0,VALID,97.069,VALID,0,VALID,19.5468,VALID,116,VALID,0.571484,
2011-12-08, 02:20:04,VALID,915.501,VALID,0,VALID,97.0842,VALID,0,VALID,19.5483,VALID,116,VALID,0.526563,
2011-12-08, 02:21:04,VALID,915.459,VALID,0,VALID,97.0994,VALID,0,VALID,19.5078,VALID,116,VALID,0.332812,
2011-12-08, 02:22:04,VALID,915.454,VALID,0,VALID,97.1223,VALID,0,VALID,19.5288,VALID,116,VALID,0.571484,
2011-12-08, 02:23:04,VALID,915.419,VALID,0,VALID,97.1147,VALID,0,VALID,19.4688,VALID,116,VALID,0.616016,
2011-12-08, 02:24:04,VALID,915.429,VALID,0,VALID,97.1376,VALID,0,VALID,19.4883,VALID,214,VALID,0.732813,
2011-12-08, 02:25:04,VALID,915.382,VALID,0,VALID,97.1528,VALID,0,VALID,19.4688,VALID,214,VALID,0.643359,
2011-12-08, 02:26:04,VALID,915.403,VALID,0,VALID,97.1909,VALID,0,VALID,19.4898,VALID,214,VALID,0.580078,
2011-12-08, 02:27:04,VALID,915.386,VALID,0,VALID,97.1833,VALID,0,VALID,19.4688,VALID,214,VALID,0.400391,
2011-12-08, 02:28:04,VALID,915.361,VALID,0,VALID,97.229,VALID,0,VALID,19.4688,VALID,214,VALID,0,
2011-12-08, 02:29:04,VALID,915.31,VALID,0,VALID,97.2214,VALID,0,VALID,19.4688,VALID,214,VALID,0,
2011-12-08, 02:30:04,VALID,915.287,VALID,0,VALID,97.229,VALID,0,VALID,19.4688,VALID,214,VALID,0.316016,
2011-12-08, 02:31:04,VALID,915.289,VALID,0,VALID,97.2443,VALID,0,VALID,19.4688,VALID,214,VALID,0.264453,
2011-12-08, 02:32:04,VALID,915.268,VALID,0,VALID,97.229,VALID,0,VALID,19.4688,VALID,214,VALID,0,
2011-12-08, 02:33:04,VALID,915.244,VALID,0,VALID,97.2367,VALID,0,VALID,19.4898,VALID,214,VALID,0,
2011-12-08, 02:34:04,VALID,915.262,VALID,0,VALID,97.229,VALID,0,VALID,19.4703,VALID,214,VALID,0,
2011-12-08, 02:35:04,VALID,915.25,VALID,0,VALID,97.1986,VALID,0,VALID,19.4508,VALID,214,VALID,0,
2011-12-08, 02:36:04,VALID,915.264,VALID,0,VALID,97.2519,VALID,0,VALID,19.4508,VALID,214,VALID,0,
2011-12-08, 02:37:04,VALID,915.256,VALID,0,VALID,97.3053,VALID,0,VALID,19.4688,VALID,214,VALID,0,
2011-12-08, 02:38:04,VALID,915.272,VALID,0,VALID,97.3663,VALID,0,VALID,19.5078,VALID,214,VALID,0,
2011-12-08, 02:39:04,VALID,915.266,VALID,0,VALID,97.2672,VALID,0,VALID,19.5288,VALID,214,VALID,0,
2011-12-08, 02:40:04,VALID,915.264,VALID,0,VALID,97.1757,VALID,0,VALID,19.4493,VALID,214,VALID,0,
2011-12-08, 02:41:04,VALID,915.264,VALID,0,VALID,97.1604,VALID,0,VALID,19.4103,VALID,214,VALID,0,
2011-12-08, 02:42:04,VALID,915.242,VALID,0,VALID,97.2672,VALID,0,VALID,19.4313,VALID,214,VALID,0,
2011-12-08, 02:43:04,VALID,915.257,VALID,0,VALID,97.2824,VALID,0,VALID,19.4493,VALID,214,VALID,0,
2011-12-08, 02:44:04,VALID,915.276,VALID,0,VALID,97.2519,VALID,0,VALID,19.4703,VALID,214,VALID,0.0925781,
2011-12-08, 02:45:04,VALID,915.279,VALID,0,VALID,97.2214,VALID,0,VALID,19.4103,VALID,214,VALID,0.157813,
2011-12-08, 02:46:04,VALID,915.268,VALID,0,VALID,97.2519,VALID,0,VALID,19.4313,VALID,214,VALID,0,
2011-12-08, 02:47:04,VALID,915.285,VALID,0,VALID,97.2824,VALID,0,VALID,19.4298,VALID,214,VALID,0,
2011-12-08, 02:48:04,VALID,915.284,VALID,0,VALID,97.3053,VALID,0,VALID,19.4688,VALID,214,VALID,0,
2011-12-08, 02:49:04,VALID,915.256,VALID,0,VALID,97.2748,VALID,0.107441,VALID,19.4673,VALID,214,VALID,0,
2011-12-08, 02:50:04,VALID,915.297,VALID,0,VALID,97.2595,VALID,0.107441,VALID,19.4883,VALID,214,VALID,0.265625,
2011-12-08, 02:51:04,VALID,915.263,VALID,0,VALID,97.2595,VALID,0,VALID,19.5078,VALID,214,VALID,0.495703,
2011-12-08, 02:52:04,VALID,915.285,VALID,0,VALID,97.3053,VALID,0.107441,VALID,19.5063,VALID,214,VALID,0.515625,
2011-12-08, 02:53:04,VALID,915.229,VALID,0,VALID,97.3129,VALID,0.107441,VALID,19.5453,VALID,214,VALID,0.247656,
2011-12-08, 02:54:04,VALID,915.204,VALID,0,VALID,97.3281,VALID,0,VALID,19.6053,VALID,214,VALID,0.232812,
2011-12-08, 02:55:04,VALID,915.185,VALID,0,VALID,97.29,VALID,0,VALID,19.6428,VALID,214,VALID,0.65625,
2011-12-08, 02:56:04,VALID,915.196,VALID,0,VALID,97.1528,VALID,0,VALID,19.6233,VALID,214,VALID,0.696094,
2011-12-08, 02:57:04,VALID,915.166,VALID,0,VALID,97.0842,VALID,0.107441,VALID,19.6038,VALID,214,VALID,0.674609,
2011-12-08, 02:58:04,VALID,915.156,VALID,0,VALID,97.069,VALID,0,VALID,19.6443,VALID,214,VALID,0.752344,
2011-12-08, 02:59:04,VALID,915.146,VALID,0,VALID,97.0385,VALID,0,VALID,19.6038,VALID,214,VALID,0.647656,
2011-12-08, 03:00:04,VALID,915.14,VALID,0,VALID,97.0537,VALID,0.107441,VALID,19.6038,VALID,214,VALID,0.662109,
2011-12-08, 03:01:04,VALID,915.16,VALID,0,VALID,97.0385,VALID,0.107441,VALID,19.6053,VALID,214,VALID,0.563281,
2011-12-08, 03:02:04,VALID,915.187,VALID,0,VALID,97.0613,VALID,0.107441,VALID,19.6233,VALID,214,VALID,0.456641,
2011-12-08, 03:03:04,VALID,915.185,VALID,0,VALID,97.0156,VALID,0,VALID,19.6053,VALID,214,VALID,0.532422,
2011-12-08, 03:04:04,VALID,915.193,VALID,0,VALID,97.0003,VALID,0,VALID,19.6248,VALID,214,VALID,0.441797,
2011-12-08, 03:05:04,VALID,915.218,VALID,0,VALID,97.0156,VALID,0,VALID,19.6053,VALID,214,VALID,0.394922,
2011-12-08, 03:06:04,VALID,915.22,VALID,0,VALID,97.0308,VALID,0,VALID,19.6248,VALID,214,VALID,0.412109,
2011-12-08, 03:07:04,VALID,915.223,VALID,0,VALID,97.0537,VALID,0,VALID,19.6248,VALID,214,VALID,0.420312,
2011-12-08, 03:08:04,VALID,915.237,VALID,0,VALID,97.0842,VALID,0,VALID,19.6443,VALID,214,VALID,0,
2011-12-08, 03:09:04,VALID,915.216,VALID,0,VALID,97.0613,VALID,0,VALID,19.6653,VALID,214,VALID,0,
2011-12-08, 03:10:04,VALID,915.215,VALID,0,VALID,97.0766,VALID,0,VALID,19.6443,VALID,214,VALID,0.0664063,
2011-12-08, 03:11:04,VALID,915.183,VALID,0,VALID,97.0156,VALID,0,VALID,19.6653,VALID,214,VALID,0.416016,
2011-12-08, 03:12:04,VALID,915.193,VALID,0,VALID,96.9698,VALID,0,VALID,19.6458,VALID,214,VALID,0.607422,
2011-12-08, 03:13:04,VALID,915.19,VALID,0,VALID,96.9317,VALID,0,VALID,19.6458,VALID,214,VALID,0.642969,
2011-12-08, 03:14:04,VALID,915.184,VALID,0,VALID,96.8784,VALID,0,VALID,19.6653,VALID,214,VALID,0.670313,
2011-12-08, 03:15:04,VALID,915.185,VALID,0,VALID,96.8403,VALID,0,VALID,19.6443,VALID,214,VALID,0.606641,
2011-12-08, 03:16:04,VALID,915.216,VALID,0,VALID,96.8403,VALID,0,VALID,19.6248,VALID,214,VALID,0.614453,
2011-12-08, 03:17:04,VALID,915.207,VALID,0,VALID,96.7945,VALID,0,VALID,19.6653,VALID,214,VALID,0.4125,
2011-12-08, 03:18:04,VALID,915.222,VALID,0,VALID,96.7869,VALID,0,VALID,19.6638,VALID,214,VALID,0.590234,
2011-12-08, 03:19:04,VALID,915.228,VALID,0,VALID,96.7488,VALID,0,VALID,19.6638,VALID,214,VALID,0.592969,
2011-12-08, 03:20:04,VALID,915.226,VALID,0,VALID,96.7564,VALID,0,VALID,19.6833,VALID,214,VALID,0.514453,
2011-12-08, 03:21:04,VALID,915.224,VALID,0,VALID,96.7183,VALID,0,VALID,19.6638,VALID,183,VALID,0.590625,
2011-12-08, 03:22:04,VALID,915.216,VALID,0,VALID,96.7488,VALID,0,VALID,19.6833,VALID,183,VALID,0.329297,
2011-12-08, 03:23:04,VALID,915.232,VALID,0,VALID,96.7411,VALID,0,VALID,19.6833,VALID,183,VALID,0.305469,
2011-12-08, 03:24:04,VALID,915.228,VALID,0,VALID,96.7259,VALID,0,VALID,19.6833,VALID,183,VALID,0.235938,
2011-12-08, 03:25:04,VALID,915.221,VALID,0,VALID,96.7488,VALID,0,VALID,19.6833,VALID,183,VALID,0,
2011-12-08, 03:26:04,VALID,915.215,VALID,0,VALID,96.7716,VALID,0,VALID,19.6833,VALID,183,VALID,0.0183594,
2011-12-08, 03:27:04,VALID,915.195,VALID,0,VALID,96.7793,VALID,0,VALID,19.7028,VALID,183,VALID,0,
2011-12-08, 03:28:04,VALID,915.195,VALID,0,VALID,96.7411,VALID,0,VALID,19.7223,VALID,183,VALID,0.0382813,
2011-12-08, 03:29:04,VALID,915.199,VALID,0,VALID,96.7411,VALID,0,VALID,19.7223,VALID,183,VALID,0,
2011-12-08, 03:30:04,VALID,915.145,VALID,0,VALID,96.7488,VALID,0,VALID,19.7433,VALID,183,VALID,0,
2011-12-08, 03:31:04,VALID,915.169,VALID,0,VALID,96.7335,VALID,0,VALID,19.7433,VALID,183,VALID,0.0261719,
2011-12-08, 03:32:04,VALID,915.121,VALID,0,VALID,96.7107,VALID,0,VALID,19.7223,VALID,183,VALID,0.389453,
2011-12-08, 03:33:04,VALID,915.124,VALID,0,VALID,96.6954,VALID,0,VALID,19.7223,VALID,183,VALID,0.283984,
2011-12-08, 03:34:04,VALID,915.109,VALID,0,VALID,96.6649,VALID,0,VALID,19.7028,VALID,183,VALID,0.336719,
2011-12-08, 03:35:04,VALID,915.128,VALID,0,VALID,96.6878,VALID,0,VALID,19.6833,VALID,183,VALID,0.201562,
2011-12-08, 03:36:04,VALID,915.119,VALID,0,VALID,96.6802,VALID,0,VALID,19.6833,VALID,183,VALID,0.0941406,
2011-12-08, 03:37:04,VALID,915.112,VALID,0,VALID,96.7107,VALID,0,VALID,19.6833,VALID,183,VALID,0.405469,
2011-12-08, 03:38:04,VALID,915.118,VALID,0,VALID,96.6725,VALID,0,VALID,19.6443,VALID,183,VALID,0.535937,
2011-12-08, 03:39:04,VALID,915.096,VALID,0,VALID,96.703,VALID,0,VALID,19.6638,VALID,183,VALID,0.4375,
2011-12-08, 03:40:04,VALID,915.104,VALID,0,VALID,96.764,VALID,0,VALID,19.6638,VALID,183,VALID,0.346875,
2011-12-08, 03:41:04,VALID,915.122,VALID,0,VALID,96.764,VALID,0,VALID,19.6848,VALID,183,VALID,0.328125,
2011-12-08, 03:42:04,VALID,915.14,VALID,0,VALID,96.764,VALID,0,VALID,19.6638,VALID,183,VALID,0.208594,
2011-12-08, 03:43:04,VALID,915.152,VALID,0,VALID,96.7793,VALID,0,VALID,19.6638,VALID,183,VALID,0.387891,
2011-12-08, 03:44:04,VALID,915.141,VALID,0,VALID,96.7716,VALID,0,VALID,19.6638,VALID,183,VALID,0.0398437,
2011-12-08, 03:45:04,VALID,915.149,VALID,0,VALID,96.7869,VALID,0,VALID,19.6443,VALID,183,VALID,0.172656,